{"data":{"norad_id":59164,"intl_designator":"2024-044N","name":"STARLINK-31309","alt_names":[],"object_type":"PAYLOAD","status":"ACTIVE","operator":null,"country":"US","launch_date":"2024-03-04","launch_site_code":"AFETR","launch_vehicle":null,"mission":null,"orbit_class":"UNKNOWN","rcs_meters":null,"size_class":null,"mass_kg":null,"dimensions":null,"purposes":["comms"],"wikipedia_slug":null,"has_3d_model":false,"image_url":null,"decayed_at":null,"tle_current":{"epoch":"2026-09-20T21:49:30.186624Z","epoch_age_seconds":123486,"freshness":"FRESH","line1":"1 59164U 24044N   26263.90937716  .00000900  00000+0  42231-4 0  9994","line2":"2 59164  43.0022  84.3780 0001243 271.8369  88.2340 15.27564228143458","mean_motion":15.27564228,"eccentricity":0.0001243,"inclination_deg":43.0022,"raan_deg":84.378,"arg_perigee_deg":271.8369,"mean_anomaly_deg":88.234,"bstar":4.2231e-5,"rev_number":14345,"period_min":94.267722011621,"perigee_km":482.24347218584,"apogee_km":483.94917479006,"semimajor_km":6861.2333234879,"source":"CELESTRAK","updated_at":"2026-09-21T09:00:34.058548Z"}}}